Regional Weather Roundup
Issued by NWS

Home | Current Version | Previous Version | Text Only | Print | Product List | Glossary Off
Versions: 1 2 3 4 5 6 7 8 9 10 11 12 13 14 15 16 17 18 19 20 21 22 23 24 25 26 27 28 29 30 31 32 33 34 35 36 37 38 39 40 41 42 43 44 45 46 47 48 49 50

869
ASUS43 KFSD 202110
RWRSD

WEATHER ROUNDUP FOR SOUTH DAKOTA
NATIONAL WEATHER SERVICE SIOUX FALLS SD
400 PM CDT SUN AUG 20 2017

NOTE: "FAIR" INDICATES FEW OR NO CLOUDS BELOW 12,000 FEET WITH NO
SIGNIFICANT WEATHER AND/OR OBSTRUCTIONS TO VISIBILITY.


SDZ001>005-009-010-012>017-202200-
NORTHWEST AND NORTH CENTRAL SOUTH DAKOTA

CITY           SKY/WX    TMP DP  RH WIND       PRES   REMARKS
BUFFALO          N/A     83  38  20 E12G31    29.95F
FAITH            N/A     77  43  29 E12G22    30.04F
MOBRIDGE       CLOUDY    75  50  41 E7        30.02S
$$

SDZ012>016-024>037-041>051-057-063-072>074-202200-
SOUTHWEST AND SOUTH CENTRAL SOUTH DAKOTA

CITY           SKY/WX    TMP DP  RH WIND       PRES   REMARKS
RAPID CTY ARPT SUNNY     79  50  36 SE14      30.03F
PIERRE         SUNNY     79  44  28 NE12      30.01F
CUSTER         SUNNY     71  48  43 E10G18    30.15F
ELLSWORTH AFB  SUNNY     80  49  34 SE12G20   30.03F
PHILIP         SUNNY     83  51  33 VRB7      29.99F
PINE RIDGE     SUNNY     84  53  34 E12G23    30.02F
SPEARFISH      FAIR      81  48  32 E21G30    30.00F
WINNER         FAIR      84  58  40 NE18G26   29.99F
$$

SDZ004>011-016>023-039-040-202200-
NORTHEAST SOUTH DAKOTA

CITY           SKY/WX    TMP DP  RH WIND       PRES   REMARKS
ABERDEEN       CLOUDY    69  57  65 N3        30.04S
WATERTOWN      CLOUDY    71  56  58 NE13      30.02S
BROOKINGS      MOSUNNY   75  59  57 NE8       30.00S
SISSETON         N/A     73  57  57 CALM      30.00F
$$

SDZ017-020-022-023-036>040-048>070-202200-
SOUTHEAST SOUTH DAKOTA

CITY           SKY/WX    TMP DP  RH WIND       PRES   REMARKS
SIOUX FALLS    PTSUNNY   81  69  67 NE15      29.97R
HURON          SUNNY     78  61  55 N15       30.01R
CHAMBERLAIN    SUNNY     83  56  39 N13       30.00S
MITCHELL       MOSUNNY   84  68  58 N8        29.98R
YANKTON        MOSUNNY   85  67  54 NE5       29.95R
$$

ABBREVIATIONS USED IN REMARKS
   TC - TEMPERATURE IN CELSIUS
  WCI - WIND CHILL INDEX
   HX - HEAT INDEX
  VSB - VISIBILITY





USA.gov is the U.S. government's official web portal to all federal, state and local government web resources and services.